Regional Weather Roundup
Issued by NWS

Home | Current Version | Previous Version | Graphics & Text | Print | Product List | Glossary On
Versions: 1 2 3 4 5 6 7 8 9 10 11 12 13 14 15 16 17 18 19 20 21 22 23 24 25 26 27 28 29 30 31 32 33 34 35 36 37 38 39 40 41 42 43 44 45 46 47 48 49 50
000
ASUS43 KBIS 221810
RWRND

NORTH DAKOTA REGIONAL WEATHER ROUNDUP
NATIONAL WEATHER SERVICE BISMARCK ND
100 PM CDT FRI SEP 22 2017

NOTE: "FAIR" INDICATES FEW OR NO CLOUDS BELOW 12,000 FEET WITH NO
SIGNIFICANT WEATHER AND/OR OBSTRUCTIONS TO VISIBILITY.


NDZ001>003-009>011-017-221900-
NORTHWEST NORTH DAKOTA

CITY           SKY/WX    TMP DP  RH WIND       PRES   REMARKS
WILLISTON      LGT RAIN  49  41  74 N13       30.00S
6HR MIN TEMP:  46; 6HR MAX TEMP:  49; 6HR PCP: TRACE;

MINOT          LGT RAIN  50  43  77 NW21G30   29.89F
MINOT AFB      CLOUDY    49  44  82 N20G26    29.89F
$$

NDZ018>021-031>035-040>046-221900-
SOUTHWEST NORTH DAKOTA

CITY           SKY/WX    TMP DP  RH WIND       PRES   REMARKS
BISMARCK       CLOUDY    56  45  66 N13G26    29.79F
6HR MIN TEMP:  54; 6HR MAX TEMP:  56; 6HR PCP: TRACE;

DICKINSON      CLOUDY    47  39  74 N23G32    29.87F
GARRISON         N/A     48  41  76 N21G33    29.84F
6HR MIN TEMP:  47; 6HR MAX TEMP:  51;

HETTINGER ARPT CLOUDY    51  37  58 N23G30    29.84F
$$

NDZ004>008-012>016-024-026-027-054-221900-
NORTHEAST NORTH DAKOTA

CITY           SKY/WX    TMP DP  RH WIND       PRES   REMARKS
GRAND FORKS    CLOUDY    68  56  65 NE12      29.73F
GRND FRKS AFB  CLOUDY    64  54  69 NE12      29.75F
DEVILS LAKE    CLOUDY    59  44  57 NE15      29.79R
$$

NDZ022-023-025-028>030-036>039-047>053-221900-
SOUTHEAST NORTH DAKOTA

CITY           SKY/WX    TMP DP  RH WIND       PRES   REMARKS
FARGO          CLOUDY    81  68  64 NE5       29.67F
6HR MIN TEMP:  62; 6HR MAX TEMP:  81;

JAMESTOWN      CLOUDY    61  56  83 NE13      29.71F
$$





USA.gov is the U.S. government's official web portal to all federal, state and local government web resources and services.